This is the latest recevied weather packets stored in our database for station/object KE5YIM-13. If no packets are shown the sender has not sent any weather packets the latest 10 day(s).
| Time | Temp. | Humidity | Pressure | Rain* | Wind** | Luminosity | Snow |
|---|---|---|---|---|---|---|---|
| 1777777313 | 9.44° C | 54% | 1011.9 hPa | 0 mm | - | 0 W/m² | - |
| 1777777010 | 9.44° C | 54% | 1012 hPa | 0 mm | - | 0 W/m² | - |
| 1777776708 | 9.44° C | 57% | 1011.9 hPa | 0 mm | - | 0 W/m² | - |
| 1777776404 | 9.44° C | 59% | 1011.9 hPa | 0 mm | - | 0 W/m² | - |
| 1777776102 | 10° C | 58% | 1011.9 hPa | 0 mm | - | 0 W/m² | - |
| 1777775798 | 10° C | 57% | 1012 hPa | 0 mm | - | 0 W/m² | - |
| 1777775496 | 9.44° C | 58% | 1012.2 hPa | 0 mm | - | 0 W/m² | - |
| 1777775191 | 9.44° C | 57% | 1012.2 hPa | 0 mm | - | 0 W/m² | - |
| 1777774886 | 10° C | 57% | 1012.4 hPa | 0 mm | - | 0 W/m² | - |
| 1777774583 | 10° C | 56% | 1012.4 hPa | 0 mm | - | 0 W/m² | - |
| 1777774280 | 10° C | 56% | 1012.5 hPa | 0 mm | - | 0 W/m² | - |
| 1777773977 | 10° C | 56% | 1012.3 hPa | 0 mm | - | 0 W/m² | - |
| 1777773674 | 10° C | 55% | 1012.2 hPa | 0 mm | - | 0 W/m² | - |
| 1777773371 | 10° C | 56% | 1012.5 hPa | 0 mm | - | 0 W/m² | - |
| 1777773068 | 10° C | 58% | 1012.3 hPa | 0 mm | - | 0 W/m² | - |
| 1777772764 | 10° C | 57% | 1012.4 hPa | 0 mm | - | 0 W/m² | - |
| 1777772462 | 10° C | 58% | 1012.3 hPa | 0 mm | - | 0 W/m² | - |
| 1777772158 | 10° C | 60% | 1012.3 hPa | 0 mm | - | 0 W/m² | - |
| 1777771856 | 9.44° C | 68% | 1012.2 hPa | 0 mm | - | 0 W/m² | - |
| 1777771554 | 10° C | 68% | 1012.2 hPa | 0 mm | - | 0 W/m² | - |
| 1777771250 | 8.89° C | 70% | 1012.2 hPa | 0 mm | - | 0 W/m² | - |
| 1777770946 | 8.89° C | 80% | 1012.1 hPa | 0 mm | - | 0 W/m² | - |
| 1777770644 | 8.89° C | 83% | 1012.2 hPa | 0 mm | - | 0 W/m² | - |
| 1777770340 | 8.89° C | 84% | 1012 hPa | 0 mm | - | 0 W/m² | - |
| 1777770038 | 8.89° C | 83% | 1011.9 hPa | 0 mm | - | 0 W/m² | - |
* Rain latest hour (hover to see other rain measurements)
** Current wind speed in m/s (hover to see current wind gust speed)